星链-30467 (STARLINK-30467 )

导读

STARLINK-30467是美国SpaceX公司星链(Starlink)星座的一颗卫星,于2023年9月20日发射升空。作为星链低轨互联网星座的组成部分,它运行在近地轨道,旨在为全球尤其是基础设施匮乏地区提供低延迟、高速宽带互联网服务。该卫星采用平板设计,配备霍尔推进器,具备自主避撞能力,寿命结束后会主动离轨坠入大气层销毁。

基本信息
目录编号:
57895
目录名称:
STARLINK-30467
国际标识:
2023-146E
轨道中心:
EARTH
卫星名称:
星链-30467
卫星全名:
星链-30467 (STARLINK-30467 )
卫星状态:
在轨 (已飞行1087 天)
发射日期:
2023-09-20 UTC
国别 :
美国 (US)
星等 :
--
该卫星已列入 空间交会检测服务 Space Conjunction Data Service (SCDS) ,当前飞行风险评估等级: 高风险
轨道信息
数据来源 国际轨道数据
星历时间: 2026-09-11T14:53:23+0800
8小时前
查看轨道信息
半长轴: 6861.202km
偏心率: 0.0001174
轨道倾角: 43.003°
近地点辐角 277.682°
升交点赤经 345.821°
平近点角 82.389°
近地点: 482.259km
远地点: 483.871km
周期: 94.267分钟
每日圈数: 15.275747
详细信息
固有亮度:
5
最大亮度:
0.3
卫星平台:
Starlink v2.0 mini
覆盖范围:
全球
运营商:
太空探索技术公司
运营商所在国:
美国
制造商(研发单位):
太空探索技术公司
制造商所在国:
美国
使用方式:
暂无
卫星简介
星链(Starlink)计划是由太空探索技术公司(SpaceX)提出的一个巨型低轨卫星互联网星座项目,计划在2019年至2024年间在太空搭建由约1.2万颗卫星组成的“星链”网络,其中1584颗将部署在地球上空550千米处的近地轨道,并从2020年开始工作。该卫星仍在工作。
2D轨道图
3D轨道图
轨道高度分析图
轨道倾角分析图
轨道综合分析图
查看轨道综合分析图
与全量物体交会距离演化趋势
与全量物体交会风险概率演化趋势